Phuket, Thailand

7:52 AM +07 on August 20, 2017 (GMT +0700)
Phuket International

Weather History for VTSP - April, 2013

Change the Weather History Date:

Wednesday, April 17, 2013

  Actual Average Record
Temperature  
Mean Temperature 78 °F -  
Max Temperature 83 °F 90 °F 98 °F (1998)
Min Temperature 72 °F 78 °F 69 °F (2014)
Cooling Degree Days 12    
Growing Degree Days 28 (Base 50)    
Moisture  
Dew Point 75 °F    
Average Humidity 84    
Maximum Humidity 100    
Minimum Humidity 76    
Precipitation  
Precipitation 0.16 in 0.35 in - ()
Sea Level Pressure  
Sea Level Pressure 29.79 in    
Wind  
Wind Speed 7 mph ()    
Max Wind Speed 18 mph    
Max Gust Speed 33 mph    
Visibility 4.5 miles    
Events Rain , Thunderstorm    
Averages and records for this station are not official NWS values.
T = Trace of Precipitation, MM = Missing Value Source: Averaged Metar Reports

Daily Weather History Graph

Daily Weather History Graph

Search for Another Location

Airport or City:

Trip Planner

Search our weather history database for the weather conditions in past years. The results will help you decide how hot, cold, wet, or windy it might be!

Date:

Astronomy

Apr. 17, 2013 Rise Set
Actual Time 6:16 AM +07 6:35 PM +07
Civil Twilight 5:55 AM +07 6:57 PM +07
Nautical Twilight 5:30 AM +07 7:21 PM +07
Astronomical Twilight 5:05 AM +07 7:46 PM +07
Moon 11:27 AM +07 (4/17) No Moon Set
Length of Visible Light 13h 01m
Length of Day
12h 18m
Waxing Crescent, 38% of the Moon is Illuminated
Apr 17
Waxing Crescent
Apr 18
First Quarter
Apr 26
Full
May 2
Last Quarter
May 10
New

Hourly Weather History & Observations

Time (+07) Temp. Heat Index Dew Point Humidity Pressure Visibility Wind Dir Wind Speed Gust Speed Precip Events Conditions
12:00 AM 82.4 °F 90.9 °F 77.0 °F 84% 29.77 in 5.0 mi Variable 3.5 mph - N/A   Mostly Cloudy
12:30 AM 78.8 °F - 75.2 °F 89% 29.77 in 4.3 mi West 12.7 mph 27.6 mph N/A Rain Rain
1:00 AM 78 °F - 78 °F 100% 29.72 in 5 mi SW 3.5 mph - - Rain , Thunderstorm Thunderstorms and Rain
1:30 AM 77.0 °F - 73.4 °F 89% 29.77 in 1.2 mi Variable 4.6 mph - N/A Rain Rain
2:00 AM 77.0 °F - 73.4 °F 89% 29.74 in 3.1 mi Variable 4.6 mph 17.3 mph N/A Rain Rain
2:30 AM 75.2 °F - 73.4 °F 94% 29.77 in 3.1 mi NNW 13.8 mph 33.4 mph N/A Rain Rain
3:00 AM 75.2 °F - 73.4 °F 94% 29.74 in 4.3 mi North 5.8 mph - N/A Rain Light Rain
3:30 AM 75.2 °F - 73.4 °F 94% 29.74 in 4.3 mi Variable 3.5 mph - N/A   Mostly Cloudy
4:00 AM 78.8 °F - 75.2 °F 89% 29.71 in 4.3 mi WSW 9.2 mph 20.7 mph N/A   Mostly Cloudy
4:30 AM 80.6 °F 86.2 °F 75.2 °F 84% 29.74 in 3.1 mi West 18.4 mph 29.9 mph N/A Rain Rain
5:00 AM 75.2 °F - 71.6 °F 89% 29.77 in 3.1 mi West 17.3 mph - N/A Rain Rain
5:30 AM 77.0 °F - 73.4 °F 89% 29.77 in 3.1 mi WNW 13.8 mph - N/A   Mostly Cloudy
6:00 AM 75.2 °F - 71.6 °F 89% 29.77 in 4.3 mi Variable 3.5 mph - N/A Rain Light Rain
6:30 AM 75.2 °F - 71.6 °F 89% 29.80 in 3.1 mi WSW 9.2 mph - N/A Rain Rain
7:00 AM 76 °F - 75 °F 95% 29.77 in 5 mi Calm Calm - - Rain , Thunderstorm Thunderstorms and Rain
7:00 AM 75.2 °F - 71.6 °F 89% 29.80 in 3.1 mi Variable 5.8 mph 18.4 mph N/A Rain Rain
7:30 AM 75.2 °F - 73.4 °F 94% 29.83 in 3.1 mi West 6.9 mph - N/A Rain Rain
8:00 AM 77.0 °F - 73.4 °F 89% 29.83 in 0.9 mi Variable 5.8 mph - N/A Rain Heavy Rain
8:30 AM 77.0 °F - 73.4 °F 89% 29.83 in 4.3 mi West 15.0 mph - N/A Rain Light Rain
9:00 AM 78.8 °F - 75.2 °F 89% 29.86 in 4.3 mi WNW 11.5 mph - N/A   Mostly Cloudy
9:30 AM 80.6 °F 86.2 °F 75.2 °F 84% 29.86 in 5.0 mi NNW 8.1 mph - N/A   Mostly Cloudy
10:00 AM 78.8 °F - 75.2 °F 89% 29.86 in 4.3 mi NW 8.1 mph - N/A Rain Light Rain
10:30 AM 77.0 °F - 71.6 °F 83% 29.89 in 1.9 mi WNW 17.3 mph - N/A Rain Rain
11:00 AM 77.0 °F - 73.4 °F 89% 29.86 in 3.1 mi West 9.2 mph - N/A Rain Rain
11:30 AM 78.8 °F - 73.4 °F 83% 29.86 in 4.3 mi WNW 12.7 mph - N/A Rain Light Rain
12:00 PM 78.8 °F - 73.4 °F 83% 29.83 in 5.0 mi WNW 6.9 mph - N/A   Mostly Cloudy
12:30 PM 78.8 °F - 75.2 °F 89% 29.83 in 5.0 mi Calm Calm - N/A   Mostly Cloudy
1:00 PM 82 °F - 76 °F 76% 29.79 in 5 mi Calm Calm - -   Mist
1:00 PM 82.4 °F 89.5 °F 75.2 °F 79% 29.80 in 5.0 mi WNW 9.2 mph - N/A   Mostly Cloudy
1:30 PM 82.4 °F 89.5 °F 75.2 °F 79% 29.80 in 5.0 mi West 9.2 mph - N/A   Mostly Cloudy
2:00 PM 82.4 °F 89.5 °F 75.2 °F 79% 29.77 in 5.0 mi West 9.2 mph - N/A   Mostly Cloudy
2:30 PM 82.4 °F 89.5 °F 75.2 °F 79% 29.77 in 5.0 mi WNW 8.1 mph - N/A   Mostly Cloudy
3:00 PM 82.4 °F 89.5 °F 75.2 °F 79% 29.77 in 5.0 mi WNW 9.2 mph - N/A   Mostly Cloudy
3:30 PM 82.4 °F 89.5 °F 75.2 °F 79% 29.77 in 4.3 mi West 13.8 mph - N/A Rain Light Rain
4:30 PM 82.4 °F 89.5 °F 75.2 °F 79% 29.74 in 5.0 mi WSW 8.1 mph - N/A   Mostly Cloudy
5:00 PM 82.4 °F 89.5 °F 75.2 °F 79% 29.77 in 5.0 mi WNW 8.1 mph - N/A   Mostly Cloudy
5:30 PM 82.4 °F 89.5 °F 75.2 °F 79% 29.77 in 5.0 mi WNW 5.8 mph - N/A   Mostly Cloudy
6:00 PM 82.4 °F 89.5 °F 75.2 °F 79% 29.77 in 5.6 mi West 8.1 mph - N/A   Mostly Cloudy
6:30 PM 82.4 °F 89.5 °F 75.2 °F 79% 29.77 in 5.6 mi West 5.8 mph - N/A   Mostly Cloudy
7:00 PM 83 °F - 77 °F 77% 29.75 in 6 mi NW 5.8 mph - -   Scattered Clouds
7:00 PM 82.4 °F 89.5 °F 75.2 °F 79% 29.77 in 5.6 mi WNW 5.8 mph - N/A   Mostly Cloudy
7:30 PM 82.4 °F 89.5 °F 75.2 °F 79% 29.77 in 6.2 mi WNW 9.2 mph - N/A   Mostly Cloudy
8:00 PM 82.4 °F 89.5 °F 75.2 °F 79% 29.80 in 6.2 mi WNW 8.1 mph - N/A   Mostly Cloudy
8:30 PM 82.4 °F 89.5 °F 75.2 °F 79% 29.80 in 5.6 mi West 6.9 mph - N/A   Mostly Cloudy
9:00 PM 82.4 °F 89.5 °F 75.2 °F 79% 29.80 in 5.6 mi West 6.9 mph - N/A   Mostly Cloudy
9:30 PM 82.4 °F 89.5 °F 75.2 °F 79% 29.80 in 5.6 mi West 8.1 mph - N/A   Mostly Cloudy
10:00 PM 82.4 °F 89.5 °F 75.2 °F 79% 29.80 in 5.6 mi West 6.9 mph - N/A   Mostly Cloudy
10:30 PM 82.4 °F 89.5 °F 75.2 °F 79% 29.80 in 5.6 mi West 5.8 mph - N/A   Mostly Cloudy
11:00 PM 82.4 °F 89.5 °F 75.2 °F 79% 29.80 in 5.6 mi WNW 5.8 mph - N/A   Mostly Cloudy
11:30 PM 80.6 °F 86.2 °F 75.2 °F 84% 29.80 in 5.6 mi Variable 2.3 mph - N/A   Mostly Cloudy